Zurück zum Katalog

STARLINK-11117

AktivKommunikationVLEO
NORAD 59761·PAYLOAD·🇺🇸 United States

Gestartet May 14, 2024 von Vandenberg Space Force Base

Loading…

Nächste Überflüge (nächste 24 Stunden)

TLE

AktuellSource: CelesTrak SupGP

Epoche: Sep 14, 2026, 21:37 UTC

1 59761C 24091J   26257.90118056 -.00019913  00000+0 -16394-3 0  2573
2 59761  53.1563 353.3952 0001049  87.4291 243.7001 15.69732148    12

Verfolge STARLINK-11117 in Echtzeit mit AllMySat

Download on the App Store